Voltar ao catálogo

STARLINK-36413

AtivoComunicaçõesVLEO
NORAD 67338·PAYLOAD·🇺🇸 United States

Lançado Jan 9, 2026 de Cape Canaveral Space Force Station

Loading…

Próximas Passagens (próximas 24 horas)

TLE

AtualizadoSource: CelesTrak SupGP

Época: Sep 14, 2026, 20:50 UTC

1 67338C 26003E   26257.86854167  .00042361  00000+0  15347-2 0  2579
2 67338  43.0025 238.9769 0001421 261.5511  76.6371 15.27548775    18

Acompanhe STARLINK-36413 em tempo real com AllMySat

Download on the App Store